BST,Max TemperatureF,Mean TemperatureF,Min TemperatureF,Max Dew PointF,MeanDew PointF,Min DewpointF,Max Humidity, Mean Humidity, Min Humidity, Max Sea Level PressureIn, Mean Sea Level PressureIn, Min Sea Level PressureIn, Max VisibilityMiles, Mean VisibilityMiles, Min VisibilityMiles, Max Wind SpeedMPH, Mean Wind SpeedMPH, Max Gust SpeedMPH,PrecipitationIn, CloudCover, Events, WindDirDegrees
2013-6-1,57,48,39,50,41,37,93,73,48,30.33,30.24,30.21,6,6,6,16,9,,0.00,4,Rain,257
2013-6-2,62,50,39,46,42,37,93,70,48,30.45,30.38,30.33,6,6,6,10,7,,0.00,3,,262
2013-6-3,68,59,50,55,52,46,94,80,64,30.51,30.48,30.45,6,6,4,8,4,,0.00,5,Rain,273
2013-6-4,69,60,50,52,49,46,100,68,49,30.48,30.42,30.33,6,6,5,14,7,23,0.00,3,,70
2013-6-5,68,60,50,55,51,46,94,77,56,30.33,30.21,30.15,6,6,6,13,5,,0.00,3,Rain,55
2013-6-6,71,58,44,54,48,43,100,71,41,30.27,30.20,30.18,6,6,2,8,4,,0.00,4,,285
2013-6-7,68,55,42,54,48,41,100,71,52,30.33,30.30,30.27,6,6,6,13,5,,0.00,1,Fog,71
2013-6-8,71,58,46,50,46,43,93,64,41,30.33,30.22,30.09,6,6,6,13,5,,0.00,2,,58
2013-6-9,68,58,48,54,49,45,94,77,56,30.12,30.06,29.98,6,6,6,15,7,,0.00,4,,60
2013-6-10,62,56,50,52,49,45,88,79,68,30.04,29.96,29.89,6,6,6,15,9,,0.00,6,,72
2013-6-11,59,54,50,54,50,46,94,83,67,29.89,29.79,29.65,6,6,3,12,9,28,0.00,5,Rain,97
2013-6-12,60,54,48,55,51,45,94,83,67,29.65,29.61,29.59,6,6,6,16,9,,0.00,6,Rain,229
2013-6-13,60,51,42,48,45,41,100,74,55,29.80,29.65,29.56,6,6,5,18,8,,0.00,3,Rain,269
2013-6-14,64,54,44,50,47,43,93,75,55,29.80,29.73,29.56,6,6,4,18,9,29,0.00,4,Rain,204
2013-6-15,55,52,48,52,47,45,94,88,76,29.59,29.46,29.36,6,6,2,21,14,30,0.00,6,Rain,204
2013-6-16,66,55,44,52,49,43,100,78,56,29.98,29.80,29.59,6,6,6,10,6,,0.00,4,,245
2013-6-17,66,57,48,54,51,46,100,76,56,30.06,30.04,30.01,6,6,6,7,3,,0.00,2,,59
2013-6-18,68,60,51,55,52,48,94,76,56,30.04,29.97,29.95,6,6,6,13,5,,0.00,3,Rain,272
2013-6-19,64,56,48,50,47,45,94,72,52,30.04,30.00,29.98,6,6,6,14,7,,0.00,3,,256
2013-6-20,68,58,48,55,51,45,88,76,60,30.04,29.91,29.80,6,6,6,9,4,,0.00,3,,339
2013-6-21,64,60,55,55,51,46,94,76,52,29.80,29.74,29.59,6,6,6,13,5,,0.00,4,Rain,256
2013-6-22,62,56,51,54,51,48,94,84,63,29.56,29.37,29.30,6,6,2,18,10,,0.00,5,Rain,208
2013-6-23,60,56,51,52,49,45,100,80,67,29.98,29.64,29.39,6,6,6,20,11,30,0.00,4,Rain,286
2013-6-24,60,54,46,45,43,41,87,67,55,30.27,30.13,29.98,6,6,6,15,11,,0.00,4,,289
2013-6-25,62,52,41,50,47,39,93,76,59,30.39,30.34,30.27,6,6,6,15,6,,0.00,4,,252
2013-6-26,62,55,48,48,46,45,94,70,52,30.45,30.43,30.42,6,6,6,15,8,,0.00,3,,279
2013-6-27,60,55,50,57,51,45,94,88,76,30.42,30.27,30.15,6,6,2,13,7,,0.00,6,Rain,250
2013-6-28,60,56,51,57,52,45,100,87,72,30.15,30.03,29.95,6,6,4,18,9,,0.00,7,Rain,253
2013-6-29,59,54,48,54,49,43,94,82,67,30.15,30.12,30.09,6,6,5,18,10,,0.00,5,,245
2013-6-30,60,55,50,55,51,46,94,83,72,30.09,29.95,29.89,6,6,2,22,13,34,0.00,6,Rain,243